This is the latest recevied weather packets stored in our database for station/object DPX206-15. If no packets are shown the sender has not sent any weather packets the latest 10 day(s).
| Time | Temp. | Humidity | Pressure | Rain* | Wind** | Luminosity | Snow |
|---|---|---|---|---|---|---|---|
| 1777205254 | 13.33° C | 47% | 1026.5 hPa | 0 mm | - | 723 W/m² | - |
| 1777204504 | 13.33° C | 51% | 1026.7 hPa | 0 mm | - | 727 W/m² | - |
| 1777203753 | 13.33° C | 50% | 1026.8 hPa | 0 mm | - | 753 W/m² | - |
| 1777203003 | 13.33° C | 51% | 1026.5 hPa | 0 mm | - | 768 W/m² | - |
| 1777202254 | 13.33° C | 51% | 1026.4 hPa | 0 mm | - | 746 W/m² | - |
| 1777201504 | 13.33° C | 52% | 1026.6 hPa | 0 mm | - | 789 W/m² | - |
| 1777200754 | 12.78° C | 54% | 1026.6 hPa | 0 mm | - | 759 W/m² | - |
| 1777200002 | 12.78° C | 53% | 1026.6 hPa | 0 mm | - | 800 W/m² | - |
| 1777199252 | 12.78° C | 53% | 1027 hPa | 0 mm | - | 794 W/m² | - |
| 1777198503 | 12.22° C | 54% | 1026.9 hPa | 0 mm | - | 779 W/m² | - |
| 1777197753 | 12.22° C | 55% | 1026.7 hPa | 0 mm | - | 762 W/m² | - |
| 1777197001 | 12.22° C | 56% | 1026.8 hPa | 0 mm | - | 745 W/m² | - |
| 1777196251 | 12.22° C | 59% | 1026.9 hPa | 0 mm | - | 717 W/m² | - |
| 1777195501 | 11.67° C | 60% | 1026.7 hPa | 0 mm | - | 691 W/m² | - |
| 1777194752 | 11.11° C | 61% | 1026.9 hPa | 0 mm | - | 668 W/m² | - |
| 1777194002 | 11.11° C | 61% | 1026.9 hPa | 0 mm | - | 637 W/m² | - |
| 1777193250 | 11.11° C | 63% | 1026.8 hPa | 0 mm | - | 592 W/m² | - |
| 1777192500 | 10.56° C | 64% | 1026.8 hPa | 0 mm | - | 564 W/m² | - |
| 1777191750 | 10° C | 67% | 1026.6 hPa | 0 mm | - | 524 W/m² | - |
| 1777191000 | 8.89° C | 70% | 1026.9 hPa | 0 mm | - | 484 W/m² | - |
| 1777190250 | 8.33° C | 74% | 1026.9 hPa | 0 mm | - | 213 W/m² | - |
| 1777189499 | 6.67° C | 78% | 1026.6 hPa | 0 mm | - | 374 W/m² | - |
| 1777188750 | 5.56° C | 78% | 1026.5 hPa | 0 mm | - | 86 W/m² | - |
| 1777188000 | 5.56° C | 78% | 1026.5 hPa | 0 mm | - | 80 W/m² | - |
| 1777187249 | 5.56° C | 79% | 1026.1 hPa | 0 mm | - | 86 W/m² | - |
* Rain latest hour (hover to see other rain measurements)
** Current wind speed in m/s (hover to see current wind gust speed)